Location: Caltech
(34.1382°N, 118.1253°W)
Time: 15:22:09
(UTC-07:00)

ADEOS II - Visible Passes

Search period start: 25 April 2017 00:00
Search period end: 05 May 2017 00:00
Orbit: 799 x 802 km, 98.4° (Epoch: 24 April)

Date Brightness Start Highest point End Pass type
(mag) Time Alt. Az. Time Alt. Az. Time Alt. Az.
25 Apr 4.7 03:21:48 10° ENE 03:23:43 12° E 03:25:38 10° ESE visible
25 Apr 2.1 04:58:36 10° N 05:03:49 66° WNW 05:09:00 10° SSW visible
26 Apr 2.3 04:32:13 10° NNE 04:37:27 69° ESE 04:42:40 10° S visible
27 Apr 3.4 04:06:10 10° NNE 04:11:00 37° E 04:15:49 10° SSE visible
28 Apr 4.3 03:40:38 10° NE 03:44:28 20° E 03:48:15 10° SE visible
28 Apr 2.6 05:19:22 10° N 05:24:16 40° WNW 05:29:09 10° SW visible
29 Apr 4.9 03:17:12 10° E 03:17:49 10° E 03:18:25 10° E visible
29 Apr 2.0 04:52:44 10° N 04:57:59 74° WNW 05:03:13 10° SSW visible
30 Apr 2.5 04:26:24 10° NNE 04:31:37 60° ESE 04:36:46 10° S visible
01 May 3.6 04:00:26 10° NE 04:05:08 32° E 04:09:48 10° SSE visible
02 May 4.5 03:35:05 10° NE 03:38:34 18° E 03:42:01 10° SE visible
02 May 2.5 05:13:27 10° N 05:18:27 46° WNW 05:23:25 10° SW visible
03 May 2.0 04:46:52 10° N 04:52:09 84° WNW 04:57:24 10° SSW visible
04 May 2.8 04:20:36 10° NNE 04:25:45 53° E 04:30:51 10° S visible
